Regional Weather Roundup
Issued by NWS

Home | Current Version | Previous Version | Graphics & Text | Print | Product List | Glossary On
Versions: 1 2 3 4 5 6 7 8 9 10 11 12 13 14 15 16 17 18 19 20 21 22 23 24 25 26 27 28 29 30 31 32 33 34 35 36 37 38 39 40 41 42 43 44 45 46 47 48 49 50
320
ASUS44 KJAN 010010
RWRMS

MISSISSIPPI HOURLY WEATHER ROUNDUP
NATIONAL WEATHER SERVICE JACKSON MS
600 PM CST SAT JAN 31 2015

NOTE: "FAIR: INDICATES FEW OR NO CLOUDS BELOW 12,000 FEET WITH NO
SIGNIFICANT WEATHER AND/OR OBSTRUCTIONS TO VISIBILITY.

MSZ001>002-007>008-010>013-018>021-025>028-034>036-010100-
NORTHWEST MISSISSIPPI

CITY           SKY/WX    TMP DP  RH WIND       PRES   REMARKS
CLARKSDALE     FAIR      45  36  70 NE5       30.18S
CLEVELAND      FAIR      47  35  61 CALM      30.16S
GREENWOOD      MOCLDY    57  23  26 SE7       30.16S
6HR MIN TEMP:  53; 6HR MAX TEMP:  64;

GREENVILLE     CLOUDY    50  33  52 E6        30.16R
6HR MIN TEMP:  50; 6HR MAX TEMP:  58;

GRENADA        FAIR      50  30  46 E7        30.18S
OLIVE BRANCH   CLOUDY    43  28  56 E5        30.19F
OXFORD         FAIR      46  25  42 E5        30.21R
TUNICA         CLOUDY    45  32  61 NE7       30.19F
$$

MSZ003>006-009-014>017-022>024-029>033-037>039-010100-
NORTHEAST MISSISSIPPI

CITY           SKY/WX    TMP DP  RH WIND       PRES   REMARKS
COLUMBUS AFB   MOCLDY    47  23  39 SE3       30.22S
6HR MIN TEMP:  47; 6HR MAX TEMP:  61;

GOLDN TRIANGLE CLEAR     54  23  30 S5        30.21S
STARKVILLE     FAIR      46  30  53 SE3       30.21F
TUPELO         CLOUDY    51  23  33 E5        30.21F
6HR MIN TEMP:  50; 6HR MAX TEMP:  54;

$$

MSZ040-058-010100-
CENTRAL MISSISSIPPI

CITY           SKY/WX    TMP DP  RH WIND       PRES   REMARKS
JACKSON INTL   CLOUDY    53  27  36 SE6       30.18S
6HR MIN TEMP:  53; 6HR MAX TEMP:  61;

JACKSON HAWKNS CLOUDY    56  25  30 E6        30.18R
6HR MIN TEMP:  54; 6HR MAX TEMP:  62;

MERIDIAN KEY   MOCLDY    54  23  30 E3        30.22R
6HR MIN TEMP:  54; 6HR MAX TEMP:  61;

MERIDIAN NAS   CLOUDY    52  25  35 CALM      30.23R
6HR MIN TEMP:  52; 6HR MAX TEMP:  59;

RAYMOND        FAIR      54  48  82 MISG      30.17S
VICKSBURG      MOCLDY    51  35  54 SE6       30.16S
6HR MIN TEMP:  51; 6HR MAX TEMP:  60;

$$

MSZ059>079-010100-
SOUTH MISSISSIPPI

CITY           SKY/WX    TMP DP  RH WIND       PRES   REMARKS
BROOKHAVEN     FAIR      48  36  61 CALM      30.19R
HATTIESBURG    CLOUDY    56  32  40 E5        30.20F
6HR MIN TEMP:  55; 6HR MAX TEMP:  63;

MCCOMB         PTCLDY    53  38  56 CALM      30.18R
6HR MIN TEMP:  51; 6HR MAX TEMP:  60;

NATCHEZ        CLOUDY    57  36  44 E7        30.15F
6HR MIN TEMP:  55; 6HR MAX TEMP:  63;

PINE BELT      CLOUDY    54  27  35 E5        30.20F
6HR MIN TEMP:  54; 6HR MAX TEMP:  61;

$$

MSZ080>082-010100-
COASTAL MISSISSIPPI

CITY           SKY/WX    TMP DP  RH WIND       PRES   REMARKS
BAY ST LOUIS   CLEAR     54  45  71 E8        30.20F
BILOXI         MOCLDY    55  47  73 E7        30.21F
6HR MIN TEMP:  55; 6HR MAX TEMP:  61;

PASCAGOULA     MOCLDY    52  44  74 E6        30.22S
6HR MIN TEMP:  51; 6HR MAX TEMP:  61;

GULFPORT       MOCLDY    55  46  71 E10       30.21S
6HR MIN TEMP:  55; 6HR MAX TEMP:  60;

$$



USA.gov is the U.S. government's official web portal to all federal, state and local government web resources and services.